Weather History for KJMR - August, 2013

Change the Weather History Date:

Monday, August 5, 2013

  Actual Average Record
Temperature  
Mean Temperature 66 °F -  
Max Temperature 78 °F 82 °F 99 °F (1947)
Min Temperature 55 °F 54 °F 42 °F (1971)
Cooling Degree Days 2    
Growing Degree Days 16 (Base 50)    
Moisture  
Dew Point 57 °F    
Average Humidity 77    
Maximum Humidity 100    
Minimum Humidity 51    
Precipitation  
Precipitation 0.21 in - - ()
Sea Level Pressure  
Sea Level Pressure 29.89 in    
Wind  
Wind Speed 1 mph (WSW)    
Max Wind Speed 13 mph    
Max Gust Speed 16 mph    
Visibility 10 miles    
Events Rain , Thunderstorm    
Averages and records for this station are not official NWS values.
T = Trace of Precipitation, MM = Missing Value Source: NWS Daily Summary

Daily Weather History Graph

Daily Weather History Graph

Search for Another Location

Airport or City:

Trip Planner

Search our weather history database for the weather conditions in past years. The results will help you decide how hot, cold, wet, or windy it might be!

Date:

Astronomy

Aug. 05, 2013 Rise Set
Actual Time 6:00 AM CDT 8:36 PM CDT
Civil Twilight 5:27 AM CDT 9:10 PM CDT
Nautical Twilight 4:44 AM CDT 9:52 PM CDT
Astronomical Twilight 3:55 AM CDT 10:41 PM CDT
Moon 4:57 AM CDT (8/5) 7:34 PM CDT (8/5)
Length of Visible Light 15h 43m
Length of Day
14h 35m
Waning Crescent, 1% of the Moon is Illuminated
Aug 5
Waning Crescent
Aug 6
New
Aug 14
First Quarter
Aug 20
Full
Aug 28
Last Quarter

Hourly Weather History & Observations

Time (CDT) Temp. Dew Point Humidity Pressure Visibility Wind Dir Wind Speed Gust Speed Precip Events Conditions
12:14 AM 55.4 °F 50.0 °F 82% 30.02 in 10.0 mi Calm Calm - N/A   Scattered Clouds
12:34 AM 59.0 °F 50.0 °F 72% 30.01 in 10.0 mi Calm Calm - N/A   Mostly Cloudy
12:54 AM 59.0 °F 50.0 °F 72% 30.02 in 10.0 mi Calm Calm - N/A   Mostly Cloudy
1:14 AM 59.0 °F 50.0 °F 72% 30.01 in 10.0 mi Calm Calm - N/A   Overcast
1:34 AM 59.0 °F 50.0 °F 72% 30.01 in 10.0 mi Calm Calm - N/A   Overcast
1:54 AM 59.0 °F 51.8 °F 77% 30.01 in 10.0 mi Calm Calm - N/A Rain Light Rain
2:14 AM 59.0 °F 51.8 °F 77% 30.03 in 10.0 mi Calm Calm - N/A Rain , Thunderstorm Rain
2:34 AM 57.2 °F 53.6 °F 88% 30.01 in 3.0 mi Calm Calm - 0.02 in Thunderstorm Thunderstorm
2:54 AM 55.4 °F 53.6 °F 94% 29.94 in 7.0 mi SSE 12.7 mph - 0.08 in Rain Rain
3:14 AM 55.4 °F 53.6 °F 94% 29.96 in 10.0 mi Calm Calm - 0.01 in Rain Rain
3:34 AM 57.2 °F 53.6 °F 88% 29.96 in 10.0 mi Calm Calm - 0.01 in   Overcast
3:54 AM 59.0 °F 55.4 °F 88% 29.96 in 10.0 mi Calm Calm - 0.01 in   Overcast
4:14 AM 59.0 °F 55.4 °F 88% 29.97 in 10.0 mi Calm Calm - N/A   Overcast
4:34 AM 59.0 °F 55.4 °F 88% 29.96 in 10.0 mi Calm Calm - N/A   Overcast
4:54 AM 59.0 °F 55.4 °F 88% 29.95 in 10.0 mi Calm Calm - N/A   Overcast
5:14 AM 59.0 °F 55.4 °F 88% 29.95 in 10.0 mi Calm Calm - N/A   Overcast
5:34 AM 59.0 °F 55.4 °F 88% 29.94 in 10.0 mi Calm Calm - N/A   Overcast
5:54 AM 59.0 °F 55.4 °F 88% 29.94 in 10.0 mi Calm Calm - N/A   Overcast
6:14 AM 59.0 °F 55.4 °F 88% 29.93 in 10.0 mi Calm Calm - N/A   Overcast
6:34 AM 59.0 °F 55.4 °F 88% 29.93 in 10.0 mi Calm Calm - N/A   Overcast
6:54 AM 57.2 °F 55.4 °F 94% 29.93 in 1.8 mi Calm Calm - 0.11 in Rain Heavy Rain
7:14 AM 59.0 °F 55.4 °F 88% 29.93 in 7.0 mi Calm Calm - N/A Rain Rain
7:34 AM 59.0 °F 55.4 °F 88% 29.93 in 7.0 mi Calm Calm - 0.01 in   Overcast
7:54 AM 59.0 °F 57.2 °F 94% 29.93 in 10.0 mi Calm Calm - 0.01 in   Overcast
8:14 AM 59.0 °F 59.0 °F 100% 29.92 in 10.0 mi Calm Calm - N/A   Overcast
8:34 AM 60.8 °F 59.0 °F 94% 29.92 in 10.0 mi Calm Calm - N/A   Overcast
8:54 AM 60.8 °F 59.0 °F 94% 29.91 in 10.0 mi Calm Calm - N/A   Overcast
9:14 AM 60.8 °F 59.0 °F 94% 29.92 in 10.0 mi Calm Calm - N/A   Overcast
9:34 AM 60.8 °F 60.8 °F 100% 29.91 in 10.0 mi Calm Calm - N/A   Overcast
9:54 AM 62.6 °F 60.8 °F 94% 29.91 in 10.0 mi Calm Calm - N/A   Overcast
10:14 AM 62.6 °F 60.8 °F 94% 29.91 in 10.0 mi Calm Calm - N/A   Overcast
10:34 AM 62.6 °F 60.8 °F 94% 29.90 in 10.0 mi Calm Calm - N/A   Overcast
10:54 AM 64.4 °F 60.8 °F 88% 29.89 in 10.0 mi Calm Calm - N/A   Overcast
11:14 AM 64.4 °F 60.8 °F 88% 29.89 in 10.0 mi Calm Calm - N/A   Overcast
11:34 AM 66.2 °F 59.0 °F 78% 29.88 in 10.0 mi Calm Calm - N/A   Overcast
11:54 AM 69.8 °F 60.8 °F 73% 29.88 in 10.0 mi Calm Calm - N/A   Mostly Cloudy
12:14 PM 69.8 °F 62.6 °F 78% 29.88 in 10.0 mi Calm Calm - N/A   Mostly Cloudy
12:34 PM 69.8 °F 60.8 °F 73% 29.88 in 10.0 mi South 9.2 mph - N/A   Overcast
12:54 PM 73.4 °F 60.8 °F 65% 29.87 in 10.0 mi Calm Calm - N/A   Mostly Cloudy
1:14 PM 71.6 °F 60.8 °F 69% 29.87 in 10.0 mi Calm Calm - N/A   Overcast
1:34 PM 71.6 °F 60.8 °F 69% 29.86 in 10.0 mi Calm Calm - N/A   Overcast
1:54 PM 73.4 °F 60.8 °F 65% 29.86 in 10.0 mi Calm Calm - N/A   Scattered Clouds
2:14 PM 71.6 °F 60.8 °F 69% 29.85 in 10.0 mi Calm Calm - N/A   Scattered Clouds
2:34 PM 75.2 °F 62.6 °F 65% 29.85 in 10.0 mi Calm Calm - N/A   Scattered Clouds
2:54 PM 75.2 °F 60.8 °F 61% 29.84 in 10.0 mi Calm Calm - N/A   Scattered Clouds
3:14 PM 77.0 °F 59.0 °F 54% 29.84 in 10.0 mi Calm Calm - N/A   Scattered Clouds
3:34 PM 75.2 °F 59.0 °F 57% 29.83 in 10.0 mi West 3.5 mph - N/A   Mostly Cloudy
3:54 PM 75.2 °F 59.0 °F 57% 29.83 in 10.0 mi Calm Calm - N/A   Mostly Cloudy
4:14 PM 75.2 °F 59.0 °F 57% 29.82 in 10.0 mi Calm Calm - N/A   Mostly Cloudy
4:34 PM 78.8 °F 59.0 °F 51% 29.82 in 10.0 mi SW 8.1 mph - N/A   Mostly Cloudy
4:54 PM 77.0 °F 59.0 °F 54% 29.82 in 10.0 mi West 4.6 mph - N/A   Mostly Cloudy
5:14 PM 77.0 °F 59.0 °F 54% 29.82 in 10.0 mi Calm Calm - N/A   Mostly Cloudy
5:34 PM 75.2 °F 59.0 °F 57% 29.82 in 10.0 mi Calm Calm - N/A   Scattered Clouds
5:54 PM 75.2 °F 59.0 °F 57% 29.82 in 10.0 mi West 4.6 mph - N/A   Scattered Clouds
6:14 PM 75.2 °F 59.0 °F 57% 29.81 in 10.0 mi West 6.9 mph - N/A   Scattered Clouds
6:34 PM 75.2 °F 57.2 °F 53% 29.81 in 10.0 mi West 12.7 mph 16.1 mph N/A   Scattered Clouds
6:54 PM 75.2 °F 57.2 °F 53% 29.81 in 10.0 mi Calm Calm - N/A   Clear
7:14 PM 75.2 °F 59.0 °F 57% 29.81 in 10.0 mi Calm Calm - N/A   Scattered Clouds
7:34 PM 73.4 °F 59.0 °F 61% 29.80 in 10.0 mi Calm Calm - N/A   Scattered Clouds
7:52 PM 73.4 °F 59.0 °F 61% 29.81 in 10.0 mi Calm Calm - N/A   Clear
8:14 PM 69.8 °F 59.0 °F 68% 29.81 in 10.0 mi Calm Calm - N/A   Scattered Clouds
8:34 PM 69.8 °F 60.8 °F 73% 29.81 in 10.0 mi Calm Calm - N/A   Clear
8:54 PM 68.0 °F 59.0 °F 73% 29.82 in 10.0 mi Calm Calm - N/A   Mostly Cloudy
9:12 PM 68.0 °F 59.0 °F 73% 29.82 in 10.0 mi Calm Calm - N/A   Scattered Clouds
9:34 PM 64.4 °F 59.0 °F 83% 29.83 in 10.0 mi Calm Calm - N/A   Clear
9:54 PM 64.4 °F 60.8 °F 88% 29.84 in 10.0 mi Calm Calm - N/A   Clear
10:14 PM 64.4 °F 60.8 °F 88% 29.85 in 10.0 mi Calm Calm - N/A   Clear
10:34 PM 62.6 °F 57.2 °F 82% 29.85 in 10.0 mi Calm Calm - N/A   Clear
10:54 PM 62.6 °F 57.2 °F 82% 29.86 in 10.0 mi Calm Calm - N/A   Clear
11:14 PM 60.8 °F 53.6 °F 77% 29.87 in 10.0 mi Calm Calm - N/A   Clear
11:34 PM 60.8 °F 53.6 °F 77% 29.86 in 10.0 mi Calm Calm - N/A   Scattered Clouds
11:54 PM 59.0 °F 51.8 °F 77% 29.86 in 10.0 mi Calm Calm - N/A   Clear